Regional Weather Roundup
Issued by NWS

Home | Current Version | Previous Version | Text Only | Print | Product List | Glossary Off
Versions: 1 2 3 4 5 6 7 8 9 10 11 12 13 14 15 16 17 18 19 20 21 22 23 24 25 26 27 28 29 30 31 32 33 34 35 36 37 38 39 40 41 42 43 44 45 46 47 48 49 50

000
ASUS43 KDMX 261504
RWRIA

WEATHER ROUNDUP FOR IOWA
NATIONAL WEATHER SERVICE DES MOINES IA
  ISSUED BY NWS QUAD CITIES IA IL
900 AM CST MON JAN 26 2015

NOTE: "FAIR" INDICATES FEW OR NO CLOUDS BELOW 12,000 FEET WITH NO
SIGNIFICANT WEATHER AND/OR OBSTRUCTIONS TO VISIBILITY.

* - THESE STATIONS ARE NOT NWS STATIONS...THUS NOT UNDER NWS
QUALITY CONTROL.  THEY ALSO DO NOT REPORT WEATHER SUCH
AS PRECIPITATION OR FOG.

IAZ001>003-012>014-020>022-031>034-043>046-261600-
   NORTHWEST IOWA

CITY           SKY/WX    TMP DP  RH WIND       PRES   REMARKS
CARROLL *      PTSUNNY   34  30  86 W16       29.79F WCI  23
CHEROKEE *     SUNNY     35  32  89 W6        29.82R WCI  30
DENNISON *     SUNNY     34  32  93 W9        29.82F WCI  26
LE MARS *      SUNNY     37  34  87 VRB6G12   29.84R WCI  33
ORANGE CITY *  SUNNY     37  32  81 NW12      29.81R WCI  30
SHELDON *      MOSUNNY   36  34  93 NW14G21   29.79R WCI  27
SIOUX CITY     SUNNY     38  33  82 NW9       29.86R WCI  31
SPENCER        CLOUDY    37  31  78 NW13      29.79R WCI  29
STORM LAKE *   MOSUNNY   34  32  93 W17       29.79R WCI  23
$$

IAZ055>058-069>071-079>083-090>094-261600-
   SOUTHWEST IOWA

CITY           SKY/WX    TMP DP  RH WIND       PRES   REMARKS
ATLANTIC *     MOSUNNY   32  30  93 SW14      29.85F WCI  22
AUDUBON *      MOSUNNY   34  28  80 W18       29.82F WCI  23
CLARINDA *     SUNNY     30  30 100 SW12      29.91R WCI  21
COUNCIL BLFS * SUNNY     32  32 100 SW6       29.86S WCI  26
CRESTON *      CLOUDY    32  30  93 SW13      29.86R WCI  22
HARLAN *       SUNNY     32  32 100 SW10      29.88F WCI  24
LAMONI         PTSUNNY   31  28  89 SW13      29.87F WCI  21
RED OAK *      SUNNY     32  30  93 SW10      29.89S WCI  24
SHENANDOAH *   SUNNY     32  30  93 SW10      29.90S WCI  24
$$

IAZ047>049-059>061-072>074-084-261600-
   CENTRAL IOWA

CITY           SKY/WX    TMP DP  RH WIND       PRES   REMARKS
AMES           CLOUDY    33  28  81 SW21G33   29.77F WCI  21
ANKENY *       CLOUDY    34  30  86 SW14G21   29.80F WCI  24
BOONE *        CLOUDY    34  32  93 SW21G32   29.74F WCI  22
CHARITON *     MOSUNNY   32  28  86 SW13G20   29.85F WCI  22
DES MOINES     CLOUDY    34  28  79 SW13      29.82F WCI  25
GRINNELL *     CLOUDY    32  29  90 S14       29.80F WCI  22
KNOXVILLE *    PTSUNNY   32  28  86 SW18      29.80F WCI  20
MARSHALLTOWN   CLOUDY    32  28  85 S9        29.80R WCI  24
NEWTON *       CLOUDY    32  30  93 SW18G25   29.79F WCI  20
PELLA *        CLOUDY    32  29  89 SW21      29.79F WCI  20
PERRY *          N/A     33  32  96 SW9       29.80F WCI  25
$$

IAZ004>006-015-016-023>025-035-036-261600-
   NORTH CENTRAL IOWA

CITY           SKY/WX    TMP DP  RH WIND       PRES   REMARKS
ALGONA *       CLOUDY    34  34 100 W13       29.76F WCI  25
CLARION *      CLOUDY    34  34 100 W12G18    29.79R WCI  25
ESTHERVILLE    PTSUNNY   35  31  85 W17       29.75R WCI  25
FORT DODGE *   CLOUDY    34  28  80 W10G16    29.79R WCI  26
MASON CITY     PTSUNNY   32  30  92 SW12      29.75F WCI  23
FOREST CITY *  FAIR      34  32  93 W7        29.74F WCI  28
WEBSTER CITY * CLOUDY    34  34 100 W18G24    29.77R WCI  23
IOWA FALLS *   CLOUDY    33  30  88 SW13      29.79S WCI  24
$$

IAZ007>011-017>019-026>030-037>042-050>054-066-261600-
   NORTHEAST IOWA

CITY           SKY/WX    TMP DP  RH WIND       PRES   REMARKS
CEDAR RAPIDS   LGT SNOW  24  22  91 SE9       29.84F FOG     WCI  14
CHARLES CITY * CLOUDY    30  30 100 S14       29.77F WCI  20
CLINTON *      CLOUDY    19  14  79 S6        29.96S WCI  11
DECORAH *      CLOUDY    23  21  93 S12G17    29.77F WCI  12
DUBUQUE        SNOW      19  16  88 S13       29.88S VSB 1/2 WCI   6
MONTICELLO *   LGT SNOW  21  21 100 SE6G12    29.90F WCI  14
OELWEIN *      CLOUDY    25  23  93 S14       29.82F WCI  13
WATERLOO       CLOUDY    29  27  92 SE7       29.82R WCI  22
$$

IAZ064-065-067-068-078-261600-
   EAST CENTRAL IOWA

CITY           SKY/WX    TMP DP  RH WIND       PRES   REMARKS
DAVENPORT      LGT SNOW  20  16  84 S8        29.94R FOG     WCI  10
IOWA CITY      LGT SNOW  25  23  92 SE8       29.89F FOG     WCI  16
MT. PLEASANT * CLOUDY    27  26  96 S10       29.90F WCI  17
MUSCATINE *    SNOW      25  23  93 S12       29.93F VSB 1/2 WCI  14
QUAD CITIES    LGT SNOW  21  16  81 S6        29.93F WCI  13
$$

IAZ062-063-075>077-085>089-095>099-261600-
   SOUTHEAST IOWA

CITY           SKY/WX    TMP DP  RH WIND       PRES   REMARKS
BURLINGTON     LGT SNOW  26  24  92 S10       29.93F FOG     WCI  16
FAIRFIELD *    CLOUDY    30  27  86 S10       29.88F WCI  21
FORT MADISON * CLOUDY    28  27  93 S9        29.93F WCI  20
KEOKUK *       CLOUDY    28  25  86 S8G14     29.93F WCI  20
OSKALOOSA *    LGT RAIN  31  29  90 S16       29.84F WCI  20
OTTUMWA        MIX PCPN  31  29  92 S10       29.85F WCI  22
WASHINGTON *   CLOUDY    28  28 100 S12       29.88F WCI  18
$$

ABBREVIATIONS USED IN REMARKS
   TC - TEMPERATURES IN CELSIUS
  WCI - WIND CHILL INDEX
   HX - HEAT INDEX
  VSB - VISIBILITY
$$



USA.gov is the U.S. government's official web portal to all federal, state and local government web resources and services.